User: anonymous   Login
Location: Unspecified
(0.0000°N, 0.0000°E)
Time: 12:22:39
(UTC+00:00)
Language:

STSS DEMO 2 (USA 209) - Orbit

View from above orbital plane
View from above orbital plane
View from above satellite
View from above satellite

Ground track
Ground track

The orbit data is extracted from the following two-line orbital elements,

1 35938U 09052B   15004.74751607 0.00000030  00000-0  13302-3 0    09
2 35938  57.9866 281.9701 0018652 101.9793 258.0207 12.79138918    04
Epoch (UTC): 04 January 2015 17:56:25
Eccentricity: 0.0018652
inclination: 57.9866°
perigee height: 1330 km
apogee height: 1359 km
right ascension of ascending node: 281.9701°
argument of perigee: 101.9793°
revolutions per day: 12.79138918
mean anomaly at epoch: 258.0207°
orbit number at epoch: 0

The dashed part of the orbit path shows where the satellite is in the earth's shadow,  

DLR